FW5493 Weather Reports


Display with metric or nautical units.
time (UTC)temp
F
wind
direction
speed
MPH
gust
MPH
rain 1hr
in
rain 24hr
in
rain mn
in
humidity
%
barometer
mb
20260902071534 67 0 0.0 8.0 0.00 0.00 0.00 48 1011.0
20260902070039 67 224 4.0 10.0 0.00 0.00 0.00 48 1010.9
20260902064539 67 200 4.0 9.0 0.00 0.00 0.00 48 1011.0
20260902063036 68 206 7.0 17.0 0.00 0.00 0.00 46 1010.9
20260902061543 70 189 11.0 20.0 0.00 0.00 0.00 44 1011.1
20260902060051 70 217 11.0 19.0 0.00 0.00 0.00 44 1011.1
20260902054541 66 250 12.0 18.0 0.00 0.00 0.00 49 1011.1
20260902053050 65 260 3.0 9.0 0.00 0.00 0.00 50 1011.0
20260902051540 62 149 5.0 8.0 0.00 0.00 0.00 55 1010.9
20260902050043 63 94 2.0 7.0 0.00 0.00 0.00 52 1010.8
20260902044539 63 96 2.0 6.0 0.00 0.00 0.00 53 1010.7
20260902043037 65 101 3.0 7.0 0.00 0.00 0.00 51 1010.7
20260902041539 65 0 0.0 4.0 0.00 0.00 0.00 48 1010.6
20260902040040 67 83 1.0 3.0 0.00 0.00 0.00 47 1010.8
20260902034540 69 0 1.0 9.0 0.00 0.00 0.00 45 1010.6
20260902033034 67 0 3.0 7.0 0.00 0.00 0.00 45 1010.5
20260902031538 69 77 3.0 9.0 0.00 0.00 0.00 42 1010.5
20260902030035 70 75 5.0 11.0 0.00 0.00 0.00 40 1010.3
20260902024538 70 68 8.0 11.0 0.00 0.00 0.00 41 1010.3
20260902023042 72 64 6.0 9.0 0.00 0.00 0.00 40 1010.3
20260902021537 74 65 7.0 11.0 0.00 0.00 0.00 37 1010.3
20260902020036 75 69 6.0 9.0 0.00 0.00 0.00 37 1010.4
20260902014539 77 84 6.0 10.0 0.00 0.00 0.00 36 1010.4
20260902013033 78 78 5.0 9.0 0.00 0.00 0.00 36 1010.3
20260902011539 79 82 6.0 10.0 0.00 0.00 0.00 35 1010.3
20260902010036 80 83 7.0 11.0 0.00 0.00 0.00 33 1010.3
20260902004538 82 76 7.0 11.0 0.00 0.00 0.00 32 1010.3
20260902003039 83 74 7.0 10.0 0.00 0.00 0.00 30 1010.3
20260902001548 84 81 2.0 7.0 0.00 0.00 0.00 30 1010.4
20260902000041 85 79 4.0 10.0 0.00 0.00 0.00 26 1010.4
20260901234537 86 96 4.0 8.0 0.00 0.00 0.00 25 1010.5
20260901233053 87 132 3.0 8.0 0.00 0.00 0.00 24 1010.4
20260901231533 87 112 6.0 10.0 0.00 0.00 0.00 22 1010.6
20260901230037 86 119 3.0 12.0 0.00 0.00 0.00 22 1010.6
20260901224537 87 125 4.0 10.0 0.00 0.00 0.00 24 1010.9
20260901223034 86 139 2.0 8.0 0.00 0.00 0.00 24 1011.0
20260901221533 86 184 6.0 10.0 0.00 0.00 0.00 23 1011.3
20260901220105 86 123 8.0 16.0 0.00 0.00 0.00 22 1011.6
20260901214538 86 107 6.0 14.0 0.00 0.00 0.00 21 1011.7
20260901213034 85 151 5.0 12.0 0.00 0.00 0.00 25 1011.7
20260901211539 85 0 1.0 8.0 0.00 0.00 0.00 27 1012.0
20260901210041 84 142 2.0 10.0 0.00 0.00 0.00 28 1012.1
20260901204535 83 42 3.0 12.0 0.00 0.00 0.00 31 1012.2
20260901203038 83 74 6.0 13.0 0.00 0.00 0.00 30 1012.4
20260901201539 83 71 7.0 12.0 0.00 0.00 0.00 30 1012.8
20260901200037 81 65 7.0 11.0 0.00 0.00 0.00 34 1012.8
20260901194540 80 87 3.0 8.0 0.00 0.00 0.00 34 1013.1
20260901193037 81 111 7.0 13.0 0.00 0.00 0.00 31 1013.3
20260901191537 81 114 2.0 9.0 0.00 0.00 0.00 34 1013.5
20260901190036 80 79 1.0 8.0 0.00 0.00 0.00 34 1013.6
20260901184540 81 98 6.0 11.0 0.00 0.00 0.00 32 1013.7
20260901183036 80 143 5.0 11.0 0.00 0.00 0.00 34 1013.8
20260901181540 79 159 8.0 12.0 0.00 0.00 0.00 34 1014.1
20260901180037 77 117 4.0 11.0 0.00 0.00 0.00 33 1014.2
20260901174534 75 126 4.0 10.0 0.00 0.00 0.00 35 1014.2
20260901173036 74 132 3.0 10.0 0.00 0.00 0.00 36 1014.4
20260901171547 73 178 3.0 7.0 0.00 0.00 0.00 39 1014.5
20260901170058 72 142 1.0 7.0 0.00 0.00 0.00 40 1014.7
20260901164541 71 0 0.0 4.0 0.00 0.00 0.00 43 1014.9
20260901163042 69 136 1.0 4.0 0.00 0.00 0.00 46 1015.0
20260901161534 66 0 0.0 3.0 0.00 0.00 0.00 49 1015.3
20260901160044 64 0 0.0 0.0 0.00 0.00 0.00 56 1015.3
20260901154532 61 0 0.0 4.0 0.00 0.00 0.00 59 1015.3
20260901153036 59 308 2.0 5.0 0.00 0.00 0.00 60 1015.5
20260901151535 57 294 3.0 5.0 0.00 0.00 0.00 64 1015.4
20260901150053 55 319 1.0 4.0 0.00 0.00 0.00 70 1015.6
20260901144543 53 26 1.0 3.0 0.00 0.00 0.00 74 1015.5
20260901143035 51 26 0.0 2.0 0.00 0.00 0.00 78 1015.6
20260901141533 49 0 0.0 0.0 0.00 0.00 0.00 79 1015.5
20260901140037 48 0 0.0 3.0 0.00 0.00 0.00 81 1015.5
20260901134541 47 0 0.0 0.0 0.00 0.00 0.00 83 1015.7
20260901133032 46 0 0.0 0.0 0.00 0.00 0.00 85 1015.5
20260901131543 45 0 0.0 0.0 0.00 0.00 0.00 86 1015.3
20260901130036 45 0 0.0 0.0 0.00 0.00 0.00 85 1015.4
20260901124536 45 0 0.0 0.0 0.00 0.00 0.00 84 1015.3
20260901123039 45 0 0.0 0.0 0.00 0.00 0.00 84 1015.4
20260901121537 45 0 0.0 2.0 0.00 0.00 0.00 83 1015.3
20260901120034 46 0 0.0 0.0 0.00 0.00 0.00 82 1015.4
20260901114540 46 0 0.0 0.0 0.00 0.00 0.00 82 1015.3
20260901113033 46 0 0.0 3.0 0.00 0.00 0.00 82 1015.2
20260901111540 46 0 0.0 0.0 0.00 0.00 0.00 82 1015.3
20260901110036 46 0 0.0 0.0 0.00 0.00 0.00 84 1015.4
20260901104547 46 0 0.0 1.0 0.00 0.00 0.00 84 1015.3
20260901103033 45 0 0.0 4.0 0.00 0.00 0.00 82 1015.3
20260901101539 46 0 0.0 0.0 0.00 0.00 0.00 83 1015.4
20260901100041 46 0 0.0 0.0 0.00 0.00 0.00 82 1015.7
20260901094536 46 0 0.0 0.0 0.00 0.00 0.00 81 1015.7
20260901093039 46 0 1.0 3.0 0.00 0.00 0.00 80 1015.7
20260901091535 46 26 2.0 4.0 0.00 0.00 0.00 80 1015.7
20260901090036 47 0 0.0 0.0 0.00 0.00 0.00 77 1016.0
20260901084551 48 0 0.0 0.0 0.00 0.00 0.00 76 1015.9
20260901083036 48 0 0.0 0.0 0.00 0.00 0.00 77 1015.8
20260901081533 49 0 0.0 0.0 0.00 0.00 0.00 75 1015.6
20260901080034 49 0 0.0 0.0 0.00 0.00 0.00 75 1015.7
20260901074536 49 0 0.0 0.0 0.00 0.00 0.00 74 1015.7
20260901073034 49 0 0.0 0.0 0.00 0.00 0.00 73 1015.8